User: anonymous   Login
Location: G�ppingen
(48.7089°N, 9.6563°E)
Time: 07:58:53
(UTC+01:00)
Language:

PicSat - Orbit

View from above orbital plane
View from above orbital plane
View from above satellite
View from above satellite

Ground track
Ground track

The orbit data is extracted from the following two-line orbital elements,

1 43131U 18004W   19321.84455028 +.00001652 +00000-0 +69954-4 0  9998
2 43131 097.4742 029.6394 0010905 081.5967 278.6506 15.24553592102694
Epoch (UTC): 17 November 2019 20:16:09
Eccentricity: 0.0010905
inclination: 97.4742°
perigee height: 484 km
apogee height: 499 km
right ascension of ascending node: 29.6394°
argument of perigee: 81.5967°
revolutions per day: 15.24553592
mean anomaly at epoch: 278.6506°
orbit number at epoch: 10269

The dashed part of the orbit path shows where the satellite is in the earth's shadow,  

DLR